Location: Nairn
(57.5833°N, 3.8667°W)
Time: 04:51:13
(UTC+00:00)

Explorer 7 - Pass Details

Date: 01 December 2020
Orbit: 484 x 678 km, 50.3° (Epoch: 17 January)

Event Time Altitude Azimuth Distance (km) Brightness Sun altitude
Exits shadow 04:51:29 21° 147° (SSE) 1,263 8.9 -28.1°
Drops below altitude 10° 04:53:18 10° 128° (SE) 1,808 10.0 -27.8°
Sets 04:55:39 0° 117° (ESE) 2,666 11.2 -27.5°
